contact:dominique.lefevre@mio.osupytheas.fr, maurice.libes@osupytheas.fr, didier.mallarino@osupytheas.fr
Project:EMSO http://www.emso-fr.org/EMSO-France
Depth: 2436.0 m
Title:EMSO Ligure Ouest : Data MII capteur CSTAR
DateTime,Latitude,Longitude,Instrument_Serial,Reference_Counts,Signal_Counts,Corrected_Signal_raw_counts,Calculated_Beam_c_inverse_meters,Internal_thermistor_counts
DateTime,Latitude,Longitude,Instrument_Serial,Reference_Counts,Signal_Counts,Corrected_Signal_raw_counts,Calculated_Beam_c_inverse_meters,Internal_thermistor_counts
2019-09-25T00:02:43,42.805,6.029,CST-1368DR,7889,11045,15374,0.062,551
2019-09-25T00:05:44,42.805,6.029,CST-1368DR,7889,11046,15375,0.062,551
2019-09-25T00:08:46,42.805,6.029,CST-1368DR,7889,11045,15375,0.062,551
2019-09-25T00:11:48,42.805,6.029,CST-1368DR,7889,11044,15373,0.063,551
2019-09-25T00:14:50,42.805,6.029,CST-1368DR,7889,11047,15376,0.062,550
2019-09-25T00:17:51,42.805,6.029,CST-1368DR,7889,11045,15375,0.062,551
2019-09-25T00:20:53,42.805,6.029,CST-1368DR,7889,11044,15373,0.063,551
2019-09-25T00:23:55,42.805,6.029,CST-1368DR,7889,11044,15373,0.063,551
2019-09-25T00:26:56,42.805,6.029,CST-1368DR,7889,11045,15375,0.062,551
2019-09-25T00:29:58,42.805,6.029,CST-1368DR,7889,11045,15374,0.062,551
2019-09-25T00:32:59,42.805,6.029,CST-1368DR,7889,11045,15374,0.062,551
2019-09-25T00:36:01,42.805,6.029,CST-1368DR,7889,11045,15374,0.062,550
2019-09-25T00:39:03,42.805,6.029,CST-1368DR,7888,11045,15375,0.062,550
2019-09-25T00:42:04,42.805,6.029,CST-1368DR,7888,11046,15377,0.062,551
2019-09-25T00:45:06,42.805,6.029,CST-1368DR,7888,11044,15374,0.062,551
2019-09-25T00:48:08,42.805,6.029,CST-1368DR,7888,11045,15376,0.062,551
2019-09-25T00:51:09,42.805,6.029,CST-1368DR,7888,11045,15375,0.062,551
2019-09-25T00:54:11,42.805,6.029,CST-1368DR,7888,11041,15371,0.063,551
2019-09-25T00:57:13,42.805,6.029,CST-1368DR,7888,11045,15376,0.062,551
2019-09-25T01:00:14,42.805,6.029,CST-1368DR,7888,11045,15375,0.062,551
2019-09-25T01:03:16,42.805,6.029,CST-1368DR,7888,11042,15372,0.063,551
2019-09-25T01:06:17,42.805,6.029,CST-1368DR,7888,11044,15374,0.062,551
2019-09-25T01:09:19,42.805,6.029,CST-1368DR,7888,11044,15374,0.062,551
2019-09-25T01:12:21,42.805,6.029,CST-1368DR,7888,11043,15373,0.063,551
2019-09-25T01:15:22,42.805,6.029,CST-1368DR,7888,11043,15374,0.062,551
2019-09-25T01:18:24,42.805,6.029,CST-1368DR,7888,11044,15374,0.062,551
2019-09-25T01:21:26,42.805,6.029,CST-1368DR,7888,11041,15371,0.063,551
2019-09-25T01:24:27,42.805,6.029,CST-1368DR,7888,11044,15374,0.062,551
2019-09-25T01:27:29,42.805,6.029,CST-1368DR,7888,11043,15373,0.063,551
2019-09-25T01:30:30,42.805,6.029,CST-1368DR,7888,11044,15374,0.062,551
2019-09-25T01:33:32,42.805,6.029,CST-1368DR,7887,11043,15375,0.062,551
2019-09-25T01:36:34,42.805,6.029,CST-1368DR,7887,11044,15376,0.062,551
2019-09-25T01:39:35,42.805,6.029,CST-1368DR,7887,11042,15374,0.062,551
2019-09-25T01:42:37,42.805,6.029,CST-1368DR,7887,11042,15373,0.063,551
2019-09-25T01:45:39,42.805,6.029,CST-1368DR,7887,11043,15375,0.062,551
2019-09-25T01:48:40,42.805,6.029,CST-1368DR,7887,11043,15375,0.062,551
2019-09-25T01:51:42,42.805,6.029,CST-1368DR,7887,11043,15375,0.062,551
2019-09-25T01:54:44,42.805,6.029,CST-1368DR,7887,11043,15374,0.062,550
2019-09-25T01:57:45,42.805,6.029,CST-1368DR,7887,11042,15373,0.063,551
2019-09-25T02:00:47,42.805,6.029,CST-1368DR,7885,10749,14969,0.169,550
2019-09-25T02:03:48,42.805,6.029,CST-1368DR,7887,11043,15374,0.062,551
2019-09-25T02:06:50,42.805,6.029,CST-1368DR,7887,11041,15373,0.063,551
2019-09-25T02:09:52,42.805,6.029,CST-1368DR,7887,11043,15374,0.062,551
2019-09-25T02:12:53,42.805,6.029,CST-1368DR,7886,11040,15372,0.063,551
2019-09-25T02:15:55,42.805,6.029,CST-1368DR,7886,11041,15374,0.062,551
2019-09-25T02:18:57,42.805,6.029,CST-1368DR,7886,11041,15374,0.062,551
2019-09-25T02:21:58,42.805,6.029,CST-1368DR,7886,11042,15375,0.062,551
2019-09-25T02:25:00,42.805,6.029,CST-1368DR,7886,11042,15375,0.062,550
2019-09-25T02:28:01,42.805,6.029,CST-1368DR,7886,11041,15374,0.062,551
2019-09-25T02:31:03,42.805,6.029,CST-1368DR,7886,11041,15374,0.062,551
2019-09-25T02:34:05,42.805,6.029,CST-1368DR,7886,11041,15374,0.062,551
2019-09-25T02:37:06,42.805,6.029,CST-1368DR,7886,11041,15374,0.062,551
2019-09-25T02:40:08,42.805,6.029,CST-1368DR,7886,11039,15372,0.063,551
2019-09-25T02:43:10,42.805,6.029,CST-1368DR,7886,11037,15369,0.064,551
2019-09-25T02:46:11,42.805,6.029,CST-1368DR,7886,11041,15374,0.062,551
2019-09-25T02:49:13,42.805,6.029,CST-1368DR,7885,11041,15375,0.062,551
2019-09-25T02:52:15,42.805,6.029,CST-1368DR,7885,11038,15371,0.063,551
2019-09-25T02:55:16,42.805,6.029,CST-1368DR,7885,11040,15375,0.062,551
2019-09-25T02:58:18,42.805,6.029,CST-1368DR,7885,11040,15375,0.062,551
2019-09-25T03:01:19,42.805,6.029,CST-1368DR,7885,11041,15375,0.062,551
2019-09-25T03:04:21,42.805,6.029,CST-1368DR,7885,11040,15374,0.062,551
2019-09-25T03:07:23,42.805,6.029,CST-1368DR,7885,11039,15372,0.063,551
2019-09-25T03:10:24,42.805,6.029,CST-1368DR,7885,11035,15367,0.064,551
2019-09-25T03:13:26,42.805,6.029,CST-1368DR,7885,11038,15371,0.063,551
2019-09-25T03:16:28,42.805,6.029,CST-1368DR,7884,11039,15375,0.062,551
2019-09-25T03:19:29,42.805,6.029,CST-1368DR,7884,11038,15374,0.062,551
2019-09-25T03:22:31,42.805,6.029,CST-1368DR,7884,11040,15376,0.062,551
2019-09-25T03:25:33,42.805,6.029,CST-1368DR,7884,11038,15374,0.062,551
2019-09-25T03:28:35,42.805,6.029,CST-1368DR,7884,11038,15374,0.062,551
2019-09-25T03:31:36,42.805,6.029,CST-1368DR,7884,11038,15374,0.062,550
2019-09-25T03:34:38,42.805,6.029,CST-1368DR,7884,11037,15373,0.063,551
2019-09-25T03:37:40,42.805,6.029,CST-1368DR,7883,11038,15375,0.062,551
2019-09-25T03:40:41,42.805,6.029,CST-1368DR,7883,11038,15375,0.062,551
2019-09-25T03:43:43,42.805,6.029,CST-1368DR,7883,11035,15371,0.063,551
2019-09-25T03:46:45,42.805,6.029,CST-1368DR,7883,11037,15373,0.063,551
2019-09-25T03:49:46,42.805,6.029,CST-1368DR,7883,11037,15374,0.062,551
2019-09-25T03:52:48,42.805,6.029,CST-1368DR,7883,11036,15372,0.063,551
2019-09-25T03:55:49,42.805,6.029,CST-1368DR,7883,11037,15373,0.063,551
2019-09-25T03:58:51,42.805,6.029,CST-1368DR,7883,11036,15373,0.063,551
2019-09-25T04:01:53,42.805,6.029,CST-1368DR,7882,11036,15375,0.062,551
2019-09-25T04:04:54,42.805,6.029,CST-1368DR,7882,11037,15375,0.062,551
2019-09-25T04:07:56,42.805,6.029,CST-1368DR,7882,11037,15375,0.062,551
2019-09-25T04:10:58,42.805,6.029,CST-1368DR,7882,11033,15370,0.064,551
2019-09-25T04:13:59,42.805,6.029,CST-1368DR,7882,11037,15375,0.062,551
2019-09-25T04:17:01,42.805,6.029,CST-1368DR,7882,11037,15376,0.062,551
2019-09-25T04:20:03,42.805,6.029,CST-1368DR,7882,11035,15373,0.063,551
2019-09-25T04:23:04,42.805,6.029,CST-1368DR,7881,11036,15377,0.062,551
2019-09-25T04:26:06,42.805,6.029,CST-1368DR,7881,11034,15373,0.063,551
2019-09-25T04:29:07,42.805,6.029,CST-1368DR,7881,11035,15374,0.062,551
2019-09-25T04:32:09,42.805,6.029,CST-1368DR,7881,11035,15374,0.062,551
2019-09-25T04:35:11,42.805,6.029,CST-1368DR,7881,11034,15373,0.063,551
2019-09-25T04:38:12,42.805,6.029,CST-1368DR,7881,11035,15374,0.062,550
2019-09-25T04:41:14,42.805,6.029,CST-1368DR,7881,11036,15376,0.062,551
2019-09-25T04:44:16,42.805,6.029,CST-1368DR,7880,11037,15379,0.061,551
2019-09-25T04:47:17,42.805,6.029,CST-1368DR,7880,11032,15372,0.063,551
2019-09-25T04:50:19,42.805,6.029,CST-1368DR,7880,11031,15370,0.064,551
2019-09-25T04:53:21,42.805,6.029,CST-1368DR,7880,11034,15375,0.062,551
2019-09-25T04:56:22,42.805,6.029,CST-1368DR,7880,11034,15375,0.062,551
2019-09-25T04:59:24,42.805,6.029,CST-1368DR,7880,11034,15376,0.062,551
2019-09-25T05:02:25,42.805,6.029,CST-1368DR,7879,11035,15378,0.061,551
2019-09-25T05:05:27,42.805,6.029,CST-1368DR,7879,11028,15369,0.064,551
2019-09-25T05:08:29,42.805,6.029,CST-1368DR,7879,11031,15372,0.063,551
2019-09-25T05:11:30,42.805,6.029,CST-1368DR,7879,11032,15374,0.062,551
2019-09-25T05:14:32,42.805,6.029,CST-1368DR,7879,11032,15374,0.062,551
2019-09-25T05:17:34,42.805,6.029,CST-1368DR,7879,11034,15376,0.062,550
2019-09-25T05:20:35,42.805,6.029,CST-1368DR,7879,11033,15376,0.062,551
2019-09-25T05:23:37,42.805,6.029,CST-1368DR,7878,11033,15377,0.062,551
2019-09-25T05:26:39,42.805,6.029,CST-1368DR,7878,11032,15376,0.062,551
2019-09-25T05:29:40,42.805,6.029,CST-1368DR,7878,11032,15376,0.062,551
2019-09-25T05:32:42,42.805,6.029,CST-1368DR,7878,11033,15377,0.062,550
2019-09-25T05:35:44,42.805,6.029,CST-1368DR,7878,11023,15363,0.065,551
2019-09-25T05:38:45,42.805,6.029,CST-1368DR,7878,11032,15375,0.062,551
2019-09-25T05:41:47,42.805,6.029,CST-1368DR,7878,11032,15376,0.062,551
2019-09-25T05:44:48,42.805,6.029,CST-1368DR,7878,11028,15370,0.064,551
2019-09-25T05:47:50,42.805,6.029,CST-1368DR,7877,11027,15371,0.063,551
2019-09-25T05:50:52,42.805,6.029,CST-1368DR,7877,11029,15374,0.062,550
2019-09-25T05:53:53,42.805,6.029,CST-1368DR,7877,11031,15376,0.062,551
2019-09-25T05:56:55,42.805,6.029,CST-1368DR,7877,11029,15374,0.062,551
2019-09-25T05:59:57,42.805,6.029,CST-1368DR,7877,11030,15375,0.062,551
2019-09-25T06:02:58,42.805,6.029,CST-1368DR,7877,11032,15377,0.062,551
2019-09-25T06:06:00,42.805,6.029,CST-1368DR,7876,11030,15377,0.062,551
2019-09-25T06:09:01,42.805,6.029,CST-1368DR,7876,11029,15376,0.062,551
2019-09-25T06:12:03,42.805,6.029,CST-1368DR,7876,11028,15374,0.062,551
2019-09-25T06:15:05,42.805,6.029,CST-1368DR,7876,11026,15371,0.063,551
2019-09-25T06:18:06,42.805,6.029,CST-1368DR,7876,11028,15374,0.062,551
2019-09-25T06:21:08,42.805,6.029,CST-1368DR,7876,11027,15373,0.063,551
2019-09-25T06:24:10,42.805,6.029,CST-1368DR,7876,11030,15377,0.062,551
2019-09-25T06:27:11,42.805,6.029,CST-1368DR,7875,11023,15369,0.064,551
2019-09-25T06:30:13,42.805,6.029,CST-1368DR,7875,11028,15375,0.062,551
2019-09-25T06:33:15,42.805,6.029,CST-1368DR,7875,11028,15376,0.062,551
2019-09-25T06:36:16,42.805,6.029,CST-1368DR,7875,11029,15377,0.062,551
2019-09-25T06:39:18,42.805,6.029,CST-1368DR,7875,11029,15377,0.062,551
2019-09-25T06:42:19,42.805,6.029,CST-1368DR,7875,11027,15375,0.062,551
2019-09-25T06:45:21,42.805,6.029,CST-1368DR,7875,11030,15378,0.061,551
2019-09-25T06:48:23,42.805,6.029,CST-1368DR,7875,11028,15376,0.062,551
2019-09-25T06:51:24,42.805,6.029,CST-1368DR,7874,11023,15371,0.063,551
2019-09-25T06:54:26,42.805,6.029,CST-1368DR,7874,11028,15378,0.061,551
2019-09-25T06:57:28,42.805,6.029,CST-1368DR,7874,11027,15377,0.062,551
2019-09-25T07:00:29,42.805,6.029,CST-1368DR,7874,11026,15375,0.062,551
2019-09-25T07:03:31,42.805,6.029,CST-1368DR,7874,11026,15375,0.062,551
2019-09-25T07:06:32,42.805,6.029,CST-1368DR,7874,11027,15376,0.062,551
2019-09-25T07:09:34,42.805,6.029,CST-1368DR,7874,11026,15375,0.062,551
2019-09-25T07:12:36,42.805,6.029,CST-1368DR,7874,11025,15373,0.063,551
2019-09-25T07:15:37,42.805,6.029,CST-1368DR,7873,11025,15375,0.062,551
2019-09-25T07:18:39,42.805,6.029,CST-1368DR,7873,11026,15377,0.062,551
2019-09-25T07:21:41,42.805,6.029,CST-1368DR,7873,11026,15377,0.062,551
2019-09-25T07:24:42,42.805,6.029,CST-1368DR,7873,11026,15377,0.062,551
2019-09-25T07:27:44,42.805,6.029,CST-1368DR,7873,11023,15372,0.063,551
2019-09-25T07:30:45,42.805,6.029,CST-1368DR,7873,11024,15374,0.062,551
2019-09-25T07:33:47,42.805,6.029,CST-1368DR,7873,11023,15373,0.063,551
2019-09-25T07:36:49,42.805,6.029,CST-1368DR,7873,11025,15375,0.062,551
2019-09-25T07:39:50,42.805,6.029,CST-1368DR,7872,11025,15377,0.062,551
2019-09-25T07:42:52,42.805,6.029,CST-1368DR,7872,11023,15375,0.062,550
2019-09-25T07:45:54,42.805,6.029,CST-1368DR,7872,11024,15375,0.062,551
2019-09-25T07:48:55,42.805,6.029,CST-1368DR,7872,11024,15376,0.062,550
2019-09-25T07:51:57,42.805,6.029,CST-1368DR,7872,11024,15376,0.062,551
2019-09-25T07:54:58,42.805,6.029,CST-1368DR,7872,11024,15376,0.062,551
2019-09-25T07:58:00,42.805,6.029,CST-1368DR,7872,11022,15373,0.063,551
2019-09-25T08:01:02,42.805,6.029,CST-1368DR,7872,11018,15367,0.064,551
2019-09-25T08:04:03,42.805,6.029,CST-1368DR,7871,11018,15369,0.064,551
2019-09-25T08:07:05,42.805,6.029,CST-1368DR,7871,11022,15374,0.062,551
2019-09-25T08:10:07,42.805,6.029,CST-1368DR,7871,11024,15377,0.062,551
2019-09-25T08:13:08,42.805,6.029,CST-1368DR,7871,11023,15376,0.062,551
2019-09-25T08:16:10,42.805,6.029,CST-1368DR,7871,11023,15375,0.062,551
2019-09-25T08:19:12,42.805,6.029,CST-1368DR,7871,11018,15369,0.064,551
2019-09-25T08:22:13,42.805,6.029,CST-1368DR,7871,11020,15372,0.063,551
2019-09-25T08:25:15,42.805,6.029,CST-1368DR,7870,11023,15377,0.062,551
2019-09-25T08:28:16,42.805,6.029,CST-1368DR,7870,11021,15375,0.062,551
2019-09-25T08:31:18,42.805,6.029,CST-1368DR,7870,11020,15373,0.063,551
2019-09-25T08:34:20,42.805,6.029,CST-1368DR,7870,11017,15369,0.064,551
2019-09-25T08:37:21,42.805,6.029,CST-1368DR,7870,11020,15374,0.062,551
2019-09-25T08:40:23,42.805,6.029,CST-1368DR,7870,11021,15376,0.062,551
2019-09-25T08:43:25,42.805,6.029,CST-1368DR,7870,11020,15374,0.062,551
2019-09-25T08:46:26,42.805,6.029,CST-1368DR,7868,11017,15373,0.063,551
2019-09-25T08:49:28,42.805,6.029,CST-1368DR,7867,11017,15375,0.062,550
2019-09-25T08:52:30,42.805,6.029,CST-1368DR,7866,11015,15374,0.062,551
2019-09-25T08:55:31,42.805,6.029,CST-1368DR,7865,11014,15374,0.062,551
2019-09-25T08:58:33,42.805,6.029,CST-1368DR,7864,11011,15371,0.063,551
2019-09-25T09:01:34,42.805,6.029,CST-1368DR,7863,11010,15373,0.063,551
2019-09-25T09:04:36,42.805,6.029,CST-1368DR,7862,11008,15372,0.063,551
2019-09-25T09:07:38,42.805,6.029,CST-1368DR,7861,11009,15374,0.062,551
2019-09-25T09:10:40,42.805,6.029,CST-1368DR,7860,11007,15374,0.062,551
2019-09-25T09:13:41,42.805,6.029,CST-1368DR,7859,11007,15376,0.062,551
2019-09-25T09:16:43,42.805,6.029,CST-1368DR,7859,11006,15374,0.062,551
2019-09-25T09:19:45,42.805,6.029,CST-1368DR,7858,11004,15374,0.062,551
2019-09-25T09:22:46,42.805,6.029,CST-1368DR,7857,11002,15372,0.063,551
2019-09-25T09:25:48,42.805,6.029,CST-1368DR,7857,11002,15372,0.063,551
2019-09-25T09:28:49,42.805,6.029,CST-1368DR,7856,11003,15375,0.062,551
2019-09-25T09:31:51,42.805,6.029,CST-1368DR,7855,11001,15374,0.062,551
2019-09-25T09:34:53,42.805,6.029,CST-1368DR,7855,10998,15370,0.064,551
2019-09-25T09:37:54,42.805,6.029,CST-1368DR,7854,11000,15374,0.062,551
2019-09-25T09:40:56,42.805,6.029,CST-1368DR,7854,10997,15371,0.063,551
2019-09-25T09:43:58,42.805,6.029,CST-1368DR,7853,10995,15369,0.064,551
2019-09-25T09:46:59,42.805,6.029,CST-1368DR,7853,10997,15373,0.063,551
2019-09-25T09:50:01,42.805,6.029,CST-1368DR,7852,10997,15374,0.062,551
2019-09-25T09:53:03,42.805,6.029,CST-1368DR,7852,10997,15374,0.062,551
2019-09-25T09:56:04,42.805,6.029,CST-1368DR,7851,10994,15372,0.063,551
2019-09-25T09:59:06,42.805,6.029,CST-1368DR,7850,10984,15359,0.066,551
2019-09-25T10:02:07,42.805,6.029,CST-1368DR,7850,10994,15374,0.062,551
2019-09-25T10:05:09,42.805,6.029,CST-1368DR,7850,10993,15373,0.063,551
2019-09-25T10:08:11,42.805,6.029,CST-1368DR,7849,10991,15371,0.063,551
2019-09-25T10:11:12,42.805,6.029,CST-1368DR,7848,10992,15374,0.062,550
2019-09-25T10:14:14,42.805,6.029,CST-1368DR,7848,10990,15371,0.063,551
2019-09-25T10:17:16,42.805,6.029,CST-1368DR,7848,10989,15370,0.064,551
2019-09-25T10:20:17,42.805,6.029,CST-1368DR,7847,10989,15372,0.063,551
2019-09-25T10:23:19,42.805,6.029,CST-1368DR,7846,10988,15373,0.063,551
2019-09-25T10:26:20,42.805,6.029,CST-1368DR,7846,10989,15373,0.063,551
2019-09-25T10:29:22,42.805,6.029,CST-1368DR,7845,10985,15371,0.063,551
2019-09-25T10:32:24,42.805,6.029,CST-1368DR,7845,10986,15372,0.063,551
2019-09-25T10:35:26,42.805,6.029,CST-1368DR,7844,10986,15373,0.063,551
2019-09-25T10:38:27,42.805,6.029,CST-1368DR,7844,10984,15371,0.063,551
2019-09-25T10:41:29,42.805,6.029,CST-1368DR,7843,10984,15373,0.063,551
2019-09-25T10:44:31,42.805,6.029,CST-1368DR,7843,10984,15373,0.063,551
2019-09-25T10:47:32,42.805,6.029,CST-1368DR,7842,10983,15373,0.063,551
2019-09-25T10:50:34,42.805,6.029,CST-1368DR,7842,10984,15374,0.062,551
2019-09-25T10:53:36,42.805,6.029,CST-1368DR,7841,10981,15372,0.063,551
2019-09-25T10:56:37,42.805,6.029,CST-1368DR,7841,10981,15372,0.063,551
2019-09-25T10:59:39,42.805,6.029,CST-1368DR,7840,10981,15373,0.063,551
2019-09-25T11:02:40,42.805,6.029,CST-1368DR,7840,10979,15371,0.063,551
2019-09-25T11:05:42,42.805,6.029,CST-1368DR,7839,10979,15372,0.063,550
2019-09-25T11:08:44,42.805,6.029,CST-1368DR,7839,10977,15370,0.064,551
2019-09-25T11:11:45,42.805,6.029,CST-1368DR,7838,10977,15371,0.063,551
2019-09-25T11:14:47,42.805,6.029,CST-1368DR,7838,10975,15369,0.064,550
2019-09-25T11:17:49,42.805,6.029,CST-1368DR,7836,10805,15135,0.125,551
2019-09-25T11:20:50,42.805,6.029,CST-1368DR,7837,10975,15371,0.063,551
2019-09-25T11:23:52,42.805,6.029,CST-1368DR,7836,10974,15371,0.063,550
2019-09-25T11:26:53,42.805,6.029,CST-1368DR,7836,10976,15373,0.063,551
2019-09-25T11:29:55,42.805,6.029,CST-1368DR,7835,10967,15363,0.065,551
2019-09-25T11:32:57,42.805,6.029,CST-1368DR,7835,10973,15371,0.063,551
2019-09-25T11:35:58,42.805,6.029,CST-1368DR,7835,10974,15372,0.063,551
2019-09-25T11:39:00,42.805,6.029,CST-1368DR,7834,10972,15372,0.063,551
2019-09-25T11:42:02,42.805,6.029,CST-1368DR,7834,10971,15370,0.064,551
2019-09-25T11:45:03,42.805,6.029,CST-1368DR,7834,10970,15369,0.064,551
2019-09-25T11:48:05,42.805,6.029,CST-1368DR,7833,10970,15371,0.063,551
2019-09-25T11:51:07,42.805,6.029,CST-1368DR,7833,10971,15373,0.063,551
2019-09-25T11:54:08,42.805,6.029,CST-1368DR,7833,10970,15371,0.063,551
2019-09-25T11:57:10,42.805,6.029,CST-1368DR,7832,10969,15371,0.063,551
2019-09-25T12:00:11,42.805,6.029,CST-1368DR,7832,10969,15372,0.063,551
2019-09-25T12:03:13,42.805,6.029,CST-1368DR,7832,10968,15370,0.064,551
2019-09-25T12:06:15,42.805,6.029,CST-1368DR,7831,10967,15370,0.064,551
2019-09-25T12:09:16,42.805,6.029,CST-1368DR,7831,10967,15371,0.063,551
2019-09-25T12:12:18,42.805,6.029,CST-1368DR,7830,10965,15370,0.064,551
2019-09-25T12:15:20,42.805,6.029,CST-1368DR,7830,10966,15371,0.063,551
2019-09-25T12:18:21,42.805,6.029,CST-1368DR,7830,10963,15366,0.065,551
2019-09-25T12:21:23,42.805,6.029,CST-1368DR,7829,10965,15372,0.063,551
2019-09-25T12:24:24,42.805,6.029,CST-1368DR,7829,10965,15371,0.063,551
2019-09-25T12:27:26,42.805,6.029,CST-1368DR,7829,10963,15369,0.064,551
2019-09-25T12:30:28,42.805,6.029,CST-1368DR,7828,10964,15372,0.063,551
2019-09-25T12:33:29,42.805,6.029,CST-1368DR,7828,10963,15370,0.064,551
2019-09-25T12:36:31,42.805,6.029,CST-1368DR,7828,10963,15370,0.064,551
2019-09-25T12:39:32,42.805,6.029,CST-1368DR,7827,10962,15371,0.063,550
2019-09-25T12:42:34,42.805,6.029,CST-1368DR,7827,10962,15370,0.064,551
2019-09-25T12:45:36,42.805,6.029,CST-1368DR,7827,10962,15370,0.064,551
2019-09-25T12:48:37,42.805,6.029,CST-1368DR,7826,10960,15369,0.064,551
2019-09-25T12:51:39,42.805,6.029,CST-1368DR,7826,10957,15366,0.065,551
2019-09-25T12:54:41,42.805,6.029,CST-1368DR,7826,10958,15367,0.064,550
2019-09-25T12:57:42,42.805,6.029,CST-1368DR,7825,10957,15367,0.064,550
2019-09-25T13:00:44,42.805,6.029,CST-1368DR,7825,10956,15366,0.065,551
2019-09-25T13:03:45,42.805,6.029,CST-1368DR,7825,10957,15368,0.064,551
2019-09-25T13:06:47,42.805,6.029,CST-1368DR,7824,10956,15368,0.064,551
2019-09-25T13:09:49,42.805,6.029,CST-1368DR,7824,10956,15368,0.064,551
2019-09-25T13:12:50,42.805,6.029,CST-1368DR,7824,10957,15369,0.064,551
2019-09-25T13:15:52,42.805,6.029,CST-1368DR,7823,10954,15367,0.064,551
2019-09-25T13:18:54,42.805,6.029,CST-1368DR,7823,10956,15369,0.064,550
2019-09-25T13:21:55,42.805,6.029,CST-1368DR,7823,10954,15366,0.065,551
2019-09-25T13:24:57,42.805,6.029,CST-1368DR,7822,10956,15372,0.063,551
2019-09-25T13:27:59,42.805,6.029,CST-1368DR,7822,10955,15370,0.064,551
2019-09-25T13:31:00,42.805,6.029,CST-1368DR,7822,10952,15365,0.065,551
2019-09-25T13:34:02,42.805,6.029,CST-1368DR,7822,10948,15360,0.066,551
2019-09-25T13:37:03,42.805,6.029,CST-1368DR,7821,10954,15371,0.063,551
2019-09-25T13:40:05,42.805,6.029,CST-1368DR,7819,10708,15028,0.154,551
2019-09-25T13:43:07,42.805,6.029,CST-1368DR,7821,10950,15365,0.065,551
2019-09-25T13:46:08,42.805,6.029,CST-1368DR,7820,10953,15370,0.064,551
2019-09-25T13:49:10,42.805,6.029,CST-1368DR,7820,10952,15369,0.064,551
2019-09-25T13:52:12,42.805,6.029,CST-1368DR,7820,10952,15369,0.064,551
2019-09-25T13:55:14,42.805,6.029,CST-1368DR,7820,10948,15363,0.065,551
2019-09-25T13:58:15,42.805,6.029,CST-1368DR,7819,10946,15363,0.065,551
2019-09-25T14:01:17,42.805,6.029,CST-1368DR,7819,10951,15369,0.064,551
2019-09-25T14:04:19,42.805,6.029,CST-1368DR,7819,10943,15359,0.066,551
2019-09-25T14:07:20,42.805,6.029,CST-1368DR,7818,10947,15365,0.065,551
2019-09-25T14:10:22,42.805,6.029,CST-1368DR,7818,10945,15363,0.065,551
2019-09-25T14:13:24,42.805,6.029,CST-1368DR,7818,10949,15369,0.064,551
2019-09-25T14:16:25,42.805,6.029,CST-1368DR,7818,10949,15369,0.064,551
2019-09-25T14:19:27,42.805,6.029,CST-1368DR,7818,10948,15367,0.064,550
2019-09-25T14:22:28,42.805,6.029,CST-1368DR,7817,10949,15370,0.064,550
2019-09-25T14:25:30,42.805,6.029,CST-1368DR,7817,10949,15370,0.064,551
2019-09-25T14:28:32,42.805,6.029,CST-1368DR,7817,10948,15369,0.064,551
2019-09-25T14:31:33,42.805,6.029,CST-1368DR,7816,10947,15370,0.064,551
2019-09-25T14:34:35,42.805,6.029,CST-1368DR,7816,10947,15369,0.064,551
2019-09-25T14:37:37,42.805,6.029,CST-1368DR,7816,10946,15368,0.064,551
2019-09-25T14:40:38,42.805,6.029,CST-1368DR,7816,10943,15365,0.065,551
2019-09-25T14:43:40,42.805,6.029,CST-1368DR,7815,10944,15368,0.064,551
2019-09-25T14:46:42,42.805,6.029,CST-1368DR,7815,10943,15366,0.065,551
2019-09-25T14:49:43,42.805,6.029,CST-1368DR,7815,10945,15369,0.064,551
2019-09-25T14:52:45,42.805,6.029,CST-1368DR,7815,10945,15369,0.064,551
2019-09-25T14:55:47,42.805,6.029,CST-1368DR,7814,10944,15369,0.064,551
2019-09-25T14:58:48,42.805,6.029,CST-1368DR,7814,10943,15368,0.064,551
2019-09-25T15:01:50,42.805,6.029,CST-1368DR,7814,10943,15367,0.064,551
2019-09-25T15:04:51,42.805,6.029,CST-1368DR,7814,10942,15366,0.065,551
2019-09-25T15:07:53,42.805,6.029,CST-1368DR,7813,10942,15369,0.064,551
2019-09-25T15:10:55,42.805,6.029,CST-1368DR,7813,10940,15365,0.065,551
2019-09-25T15:13:56,42.805,6.029,CST-1368DR,7813,10941,15367,0.064,551
2019-09-25T15:16:58,42.805,6.029,CST-1368DR,7813,10940,15366,0.065,551
2019-09-25T15:20:00,42.805,6.029,CST-1368DR,7812,10940,15367,0.064,550
2019-09-25T15:23:01,42.805,6.029,CST-1368DR,7812,10940,15367,0.064,551
2019-09-25T15:26:03,42.805,6.029,CST-1368DR,7812,10937,15363,0.065,551
2019-09-25T15:29:04,42.805,6.029,CST-1368DR,7812,10931,15355,0.067,551
2019-09-25T15:32:06,42.805,6.029,CST-1368DR,7812,10931,15354,0.068,551
2019-09-25T15:35:08,42.805,6.029,CST-1368DR,7811,10938,15366,0.065,551
2019-09-25T15:38:09,42.805,6.029,CST-1368DR,7811,10935,15361,0.066,551
2019-09-25T15:41:11,42.805,6.029,CST-1368DR,7811,10938,15366,0.065,551
2019-09-25T15:44:13,42.805,6.029,CST-1368DR,7811,10939,15368,0.064,551
2019-09-25T15:47:14,42.805,6.029,CST-1368DR,7810,10938,15367,0.064,551
2019-09-25T15:50:16,42.805,6.029,CST-1368DR,7810,10937,15367,0.064,551
2019-09-25T15:53:18,42.805,6.029,CST-1368DR,7810,10937,15366,0.065,551
2019-09-25T15:56:19,42.805,6.029,CST-1368DR,7810,10932,15360,0.066,551
2019-09-25T15:59:21,42.805,6.029,CST-1368DR,7810,10936,15365,0.065,551
2019-09-25T16:02:22,42.805,6.029,CST-1368DR,7809,10936,15367,0.064,551
2019-09-25T16:05:24,42.805,6.029,CST-1368DR,7809,10935,15366,0.065,551
2019-09-25T16:08:26,42.805,6.029,CST-1368DR,7809,10935,15365,0.065,551
2019-09-25T16:11:27,42.805,6.029,CST-1368DR,7809,10933,15363,0.065,551
2019-09-25T16:14:29,42.805,6.029,CST-1368DR,7809,10932,15361,0.066,551
2019-09-25T16:17:31,42.805,6.029,CST-1368DR,7809,10933,15363,0.065,551
2019-09-25T16:20:32,42.805,6.029,CST-1368DR,7808,10934,15365,0.065,551
2019-09-25T16:23:34,42.805,6.029,CST-1368DR,7808,10933,15364,0.065,550
2019-09-25T16:26:35,42.805,6.029,CST-1368DR,7808,10934,15366,0.065,551
2019-09-25T16:29:37,42.805,6.029,CST-1368DR,7808,10933,15364,0.065,551
2019-09-25T16:32:39,42.805,6.029,CST-1368DR,7808,10933,15365,0.065,550
2019-09-25T16:35:40,42.805,6.029,CST-1368DR,7808,10933,15365,0.065,551
2019-09-25T16:38:42,42.805,6.029,CST-1368DR,7807,10932,15365,0.065,551